Simultaneous Nadir Overpasses (SNOs) Predictions

Prediction of SNOs between AQUA and METOP-B Satellite Orbit:

Table of predicted SNOs for the next 14.0 days since TLE Epoch: 4/15/2016
Index Date (AQUA) Time (AQUA) Lat,Lon (AQUA) SZA (AQUA ) Date (METOP-B) Time (METOP-B) Lat,Lon (METOP-B) SZA (METOP-B ) Distance(km) Time Diff (sec)
1 04/17/2016 10:53:46 -73.89,-169.25 116.83 04/17/2016 10:53:27 -73.87,-169.26 116.85 2.14 19
2 04/17/2016 11:43:14 73.92, -1.69 63.20 04/17/2016 11:44:05 73.94, -1.76 63.21 2.52 51
3 04/20/2016 05:38:26 73.35, 90.69 61.64 04/20/2016 05:37:18 73.34, 88.61 61.71 66.33 68
4 04/20/2016 06:28:02 -73.88,-102.80 117.82 04/20/2016 06:27:49 -73.91,-102.76 117.79 3.22 13
5 04/20/2016 07:17:31 73.97, 64.63 62.27 04/20/2016 07:18:27 73.97, 64.73 62.27 3.28 56
6 04/23/2016 01:12:46 73.63, 156.54 60.98 04/23/2016 01:11:35 73.58, 155.54 60.97 31.74 71
7 04/23/2016 02:02:17 -73.89, -36.39 118.76 04/23/2016 02:02:11 -73.89, -36.39 118.75 0.37 6
8 04/23/2016 02:51:45 73.93, 131.15 61.28 04/23/2016 02:52:49 73.96, 131.10 61.30 2.89 64
9 04/25/2016 20:47:05 73.81,-137.43 60.25 04/25/2016 20:45:53 73.81,-137.51 60.26 2.65 72
10 04/25/2016 21:36:33 -73.91, 29.98 119.65 04/25/2016 21:36:33 -73.92, 30.09 119.65 3.42 0
11 04/25/2016 22:26:01 73.96,-162.48 60.39 04/25/2016 22:27:11 73.99,-162.42 60.41 3.31 70
12 04/28/2016 16:21:21 73.85, -71.09 59.40 04/28/2016 16:20:15 73.84, -71.04 59.39 2.52 66
13 04/28/2016 17:10:48 -73.90, 96.44 120.56 04/28/2016 17:10:56 -73.90, 96.44 120.56 0.12 8




NCC Satellite Simultaneous Nadir Overpasses (SNOs) Prediction Service
